User: anonymous   Login
Location: Manderson
(44.2693°N, 107.9639°W)
Time: 21:30:34
(UTC+00:00)
Language:

N. Korean satellite - Orbit

View from above orbital plane
View from above orbital plane
View from above satellite
View from above satellite

Ground track
Ground track

The orbit data is extracted from the following two-line orbital elements,

1 39026U 12072A   22136.47616503  .00020394  00000-0  58161-3 0  9990
2 39026  97.2674 127.5873 0028549 274.3582  85.4400 15.35672561524013
Epoch (UTC): 16 May 2022 11:25:40
Eccentricity: 0.0028549
inclination: 97.2674°
perigee height: 439 km
apogee height: 478 km
right ascension of ascending node: 127.5873°
argument of perigee: 274.3582°
revolutions per day: 15.35672561
mean anomaly at epoch: 85.4400°
orbit number at epoch: 52401

The dashed part of the orbit path shows where the satellite is in the earth's shadow,  

DLR